[[{"header":{"parameterUnit":"m.s-1","parameterCategory":1,"la1":30.2991,"la2":30.254,"lo1":-89.0895,"lo2":-89.0444,"dy":0.0017,"dx":0.0017,"nx":28,"ny":28,"refTime":"2023-10-13T03:00:00:Z","depth":0,"parameterNumber":2,"parameterNumberName":"U-component_of_WINDS"},"data":[0,0,0,0,0,0,0,0,0,0,0,0,0,0,0,0,0,0,0,0,0,0,0,0,0,0,0,0,0,0,0,0,0,0,0,0,0,0,0,0,0,0,0,0,0,0,0,0,0,0,0,0,0,0,0,0,0,0,1.1845,1.1846,0,1.1875,1.1875,1.1876,1.1874,1.1874,1.1873,1.1873,1.1902,1.1903,1.1904,0,0,0,0,0,0,0,0,0,0,0,0,0,1.1785,1.1786,1.1845,1.1846,1.1846,1.1875,1.1875,1.1876,1.1874,1.1874,1.1873,1.1873,1.1901,1.1903,1.1904,0,0,0,0,0,0,0,0,0,0,0,0,0,1.1812,1.1786,1.1845,1.1849,1.185,1.1875,1.1875,1.1876,1.1874,1.1874,1.1873,1.1873,1.1901,1.1902,1.1904,1.1927,0,0,1.1909,1.191,0,0,0,0,0,0,0,0,1.1811,1.1815,1.1848,1.1849,1.1849,1.187,1.1864,1.1893,1.1875,1.1865,1.1873,1.1872,1.1892,1.1894,1.1901,1.1928,1.193,1.191,1.1911,1.1911,1.1912,0,0,0,0,0,0,0,1.1809,1.1813,1.1857,1.1848,1.1849,1.1848,1.1851,1.187,1.1881,1.1866,1.1866,1.1869,1.1892,1.1899,1.1901,1.193,1.1909,1.1911,1.1912,1.1913,1.1976,1.1977,0,0,0,0,0,0,1.1807,1.1812,1.1856,1.1858,1.1828,1.185,1.1853,1.1864,1.1881,1.1883,1.187,1.1869,1.1897,1.1899,1.1902,1.1929,1.1911,1.1913,1.1914,1.1975,1.1976,1.1977,0,0,0,0,0,0,1.1805,1.1811,1.1855,1.1835,1.184,1.1851,1.1864,1.1865,1.1873,1.1884,1.1886,1.1875,1.1896,1.19,1.1921,1.193,1.1914,1.1915,1.1975,1.1976,1.1976,1.1984,0,0,0,0,0,0,1.1804,1.181,1.182,1.1835,1.1841,1.1873,1.1864,1.1866,1.1876,1.1875,1.189,1.1892,1.1896,1.1918,1.1922,1.1932,1.1917,1.1974,1.1975,1.1976,1.1983,1.1985,1.1987,0,0,0,0,0,1.1801,1.1821,1.182,1.1826,1.1854,1.1874,1.1878,1.1883,1.1877,1.1886,1.1893,1.1891,1.1929,1.192,1.1925,1.1936,1.1973,1.1975,1.1976,1.1982,1.1984,1.1987,0,0,0,0,0,0,1.1806,1.1823,1.1823,1.1847,1.1859,1.1874,1.1886,1.1885,1.1899,1.1898,1.1903,1.1906,1.1926,1.1933,1.1923,1.1958,1.195,1.1952,1.1953,1.1955,1.1957,1.1955,1.1918,0,0,0,0,0,1.181,1.1826,1.1839,1.186,1.1866,1.1875,1.1884,1.1886,1.1899,1.1903,1.1912,1.1924,1.1938,1.1947,1.1961,1.1984,1.1986,1.1993,1.1995,1.1997,1.1999,1.201,1.2012,1.1982,1.1982,1.1982,0,0,1.1818,1.1829,1.1839,1.1861,1.187,1.1885,1.1879,1.1896,1.1906,1.1906,1.1926,1.1932,1.1945,1.1967,1.1977,1.1973,1.2008,1.1999,1.2,1.2001,1.2011,1.2014,1.2017,1.1983,1.1982,1.1982,0,0,1.184,1.1851,1.1869,1.1878,1.1893,1.1898,1.1902,1.1917,1.1921,1.1941,1.1941,1.1953,1.1978,1.1986,1.1994,1.2018,1.2017,1.2023,1.2033,1.2043,1.2046,1.2048,1.2055,1.2058,1.2025,1.2025,1.2025,0,1.1849,1.1872,1.1878,1.1894,1.1903,1.1903,1.192,1.1929,1.1947,1.1953,1.1949,1.1978,1.1987,1.201,1.2016,1.2022,1.2026,1.2021,1.2045,1.2047,1.2049,1.2056,1.2059,1.2025,1.2025,1.2025,1.2025,0,1.1881,1.1897,1.1909,1.1926,1.1937,1.1954,1.196,1.197,1.1971,1.1977,1.1996,1.2007,1.2022,1.2028,1.203,1.205,1.2047,1.2044,1.2036,1.2053,1.2059,1.2062,1.2026,1.2026,1.2025,1.2025,0,0,1.1907,1.1927,1.1931,1.1938,1.1953,1.1965,1.1981,1.1997,1.2004,1.2016,1.2029,1.2049,1.2046,1.2054,1.2057,1.2066,1.2083,1.2062,1.2062,1.2064,1.2105,1.2107,1.211,1.2082,1.2083,1.2083,1.2103,0,1.193,1.1959,1.1964,1.1989,1.2003,1.2003,1.2016,1.2026,1.2032,1.2044,1.2049,1.2063,1.2058,1.2063,1.2073,1.2079,1.2091,1.2078,1.2093,1.2093,1.2089,1.2113,1.2116,1.2134,1.2106,1.2107,1.2107,0,1.1961,1.1974,1.2,1.2012,1.2018,1.2031,1.2044,1.2056,1.2067,1.207,1.2079,1.208,1.2095,1.2087,1.2107,1.2098,1.2104,1.2108,1.2109,1.211,1.2101,1.2114,1.214,1.2143,1.2111,1.2111,1.2111,0,1.1976,1.2,1.2019,1.2025,1.204,1.2048,1.2055,1.2065,1.2073,1.2085,1.209,1.2103,1.211,1.2119,1.2123,1.2117,1.2143,1.2135,1.2145,1.2144,1.215,1.2149,1.2176,1.2155,1.2155,1.2155,1.2155,0,1.2001,1.2017,1.2025,1.2037,1.2054,1.2058,1.2075,1.2081,1.209,1.2101,1.2102,1.2113,1.2118,1.2129,1.2132,1.2148,1.2151,1.2153,1.2154,1.2153,1.2152,1.2156,1.2155,1.2156,1.2156,1.2156,1.2155,0,1.2021,1.2027,1.2047,1.2059,1.2063,1.2075,1.2085,1.2095,1.21,1.2114,1.2118,1.2125,1.2138,1.2143,1.2159,1.2161,1.2179,1.2179,1.2175,1.2175,1.2184,1.2182,1.2214,1.2218,1.2195,1.2195,1.2195,0,1.2036,1.2048,1.2061,1.2069,1.2076,1.2089,1.2097,1.2102,1.211,1.2123,1.2131,1.2144,1.2154,1.2175,1.2181,1.2193,1.2193,1.2203,1.2194,1.2192,1.2191,1.219,1.2191,1.2204,1.2204,1.2205,1.2205,0,1.2062,1.2064,1.2076,1.2089,1.2099,1.2109,1.2119,1.2125,1.2131,1.214,1.2154,1.2162,1.2178,1.219,1.2202,1.2207,1.2207,1.2207,1.221,1.2209,1.2206,1.2206,1.2178,1.2206,1.2206,1.2206,1.2206,1.2206,1.2079,1.2089,1.2099,1.2112,1.212,1.2129,1.2139,1.2145,1.2156,1.217,1.2171,1.2185,1.2195,1.221,1.2216,1.2227,1.2224,1.2228,1.2229,1.223,1.223,1.2205,1.2229,1.2229,1.2229,1.2229,1.2229,0,1.2103,1.211,1.2122,1.2136,1.2145,1.2144,1.2155,1.2163,1.2175,1.2184,1.2194,1.2209,1.222,1.2227,1.2239,1.2246,1.2245,1.2248,1.2247,1.2248,1.2232,1.2228,1.2248,1.2248,1.2248,1.2248,1.2248,1.2248,1.2117,1.2134,1.2137,1.2157,1.2163,1.2177,1.2183,1.2191,1.2198,1.2214,1.2223,1.2228,1.2236,1.2248,1.2258,1.2259,1.2263,1.2266,1.2267,1.2252,1.225,1.2248,1.2244,1.2267,1.2267,1.2283,1.2283,1.2283]},{"header":{"parameterUnit":"m.s-1","parameterCategory":1,"la1":30.2991,"la2":30.254,"lo1":-89.0895,"lo2":-89.0444,"dy":0.0017,"dx":0.0017,"nx":28,"ny":28,"refTime":"2023-10-13T03:00:00:Z","depth":0,"parameterNumber":3,"parameterNumberName":"V-component_of_WINDS"},"data":[0,0,0,0,0,0,0,0,0,0,0,0,0,0,0,0,0,0,0,0,0,0,0,0,0,0,0,0,0,0,0,0,0,0,0,0,0,0,0,0,0,0,0,0,0,0,0,0,0,0,0,0,0,0,0,0,0,0,0.8932,0.8931,0,0.8859,0.8859,0.8858,0.8815,0.8815,0.8815,0.8815,0.8737,0.8736,0.8734,0,0,0,0,0,0,0,0,0,0,0,0,0,0.903,0.9028,0.8932,0.8931,0.893,0.886,0.8859,0.8858,0.8815,0.8815,0.8815,0.8815,0.8738,0.8736,0.8734,0,0,0,0,0,0,0,0,0,0,0,0,0,0.8975,0.9028,0.8932,0.8901,0.8897,0.886,0.8858,0.8857,0.8815,0.8815,0.8815,0.8815,0.8739,0.8736,0.8733,0.8721,0,0,0.8725,0.8723,0,0,0,0,0,0,0,0,0.8978,0.8972,0.8906,0.8903,0.8899,0.8846,0.8865,0.8811,0.8815,0.8846,0.8815,0.8814,0.8774,0.8768,0.8755,0.8717,0.8714,0.8724,0.8723,0.8721,0.8721,0,0,0,0,0,0,0,0.8982,0.8974,0.8903,0.8905,0.8901,0.8889,0.8881,0.8854,0.8812,0.8844,0.884,0.8832,0.8771,0.8758,0.8753,0.8713,0.8724,0.8722,0.872,0.8719,0.8659,0.8659,0,0,0,0,0,0,0.8991,0.8978,0.8905,0.8901,0.8939,0.8887,0.8878,0.8863,0.8812,0.8804,0.8833,0.8831,0.8763,0.8756,0.875,0.873,0.8721,0.8719,0.8717,0.8658,0.8659,0.8659,0,0,0,0,0,0,0.8994,0.8985,0.8908,0.8939,0.8928,0.8886,0.8869,0.8862,0.8848,0.8804,0.8796,0.8827,0.8762,0.8754,0.8728,0.8727,0.8717,0.8715,0.8658,0.8658,0.8659,0.8693,0,0,0,0,0,0,0.8997,0.8987,0.8983,0.8939,0.8926,0.8889,0.8869,0.8861,0.8844,0.884,0.8796,0.8789,0.8761,0.8732,0.8725,0.8723,0.8713,0.8658,0.8658,0.8659,0.8691,0.8694,0.8696,0,0,0,0,0,0.9,0.8995,0.8983,0.8974,0.8921,0.8889,0.8882,0.8852,0.8844,0.8838,0.881,0.879,0.8728,0.873,0.8722,0.8719,0.8658,0.8658,0.8659,0.869,0.8693,0.8696,0,0,0,0,0,0,0.9039,0.8989,0.8974,0.8955,0.8927,0.8882,0.8875,0.8856,0.8829,0.8827,0.8789,0.8779,0.8757,0.8735,0.8738,0.8703,0.8691,0.8689,0.8718,0.872,0.8723,0.8728,0.871,0,0,0,0,0,0.9045,0.9025,0.8982,0.8968,0.8955,0.8918,0.8903,0.8882,0.8851,0.8838,0.8808,0.8778,0.8751,0.8735,0.8708,0.8688,0.8677,0.8681,0.8684,0.8686,0.8685,0.8671,0.8672,0.8659,0.8659,0.8659,0,0,0.9058,0.9028,0.9018,0.8975,0.8951,0.893,0.8908,0.8887,0.887,0.8835,0.8808,0.8785,0.8748,0.8725,0.8713,0.8706,0.8686,0.8686,0.8688,0.8686,0.8671,0.8672,0.8673,0.866,0.866,0.866,0,0,0.907,0.9046,0.9032,0.9008,0.8971,0.8946,0.8942,0.89,0.8884,0.8857,0.8829,0.8808,0.8764,0.8739,0.872,0.872,0.87,0.8713,0.8725,0.8711,0.8712,0.8713,0.8712,0.8712,0.8712,0.8712,0.8712,0,0.909,0.9058,0.9026,0.9006,0.8988,0.8955,0.8939,0.8917,0.8874,0.8861,0.8854,0.8796,0.877,0.8739,0.8739,0.8725,0.8719,0.8717,0.8715,0.8715,0.8715,0.8714,0.8714,0.8713,0.8713,0.8713,0.8713,0,0.9084,0.9062,0.9054,0.9014,0.8994,0.8976,0.894,0.8924,0.8904,0.8879,0.8851,0.8817,0.8782,0.8774,0.8754,0.8739,0.8736,0.8722,0.871,0.8719,0.8717,0.8716,0.8716,0.8715,0.8715,0.8714,0,0,0.9119,0.906,0.9058,0.9038,0.8995,0.8976,0.8956,0.8923,0.8909,0.8879,0.886,0.8823,0.8809,0.8788,0.8765,0.8753,0.8754,0.8741,0.8739,0.8744,0.8734,0.8744,0.8744,0.874,0.874,0.874,0.8737,0,0.9124,0.9088,0.9057,0.9031,0.9009,0.8977,0.8959,0.893,0.8905,0.8882,0.8854,0.8828,0.8813,0.88,0.8787,0.8757,0.8751,0.8757,0.8721,0.872,0.8731,0.8743,0.8754,0.8753,0.8736,0.8736,0.8736,0,0.9126,0.9098,0.907,0.9027,0.9017,0.9001,0.8967,0.8946,0.8911,0.8894,0.8869,0.8845,0.882,0.881,0.8774,0.8778,0.8761,0.8744,0.8743,0.8739,0.8728,0.8738,0.8752,0.8752,0.8734,0.8734,0.8734,0,0.9153,0.9108,0.9085,0.9069,0.9019,0.9009,0.8987,0.8952,0.8934,0.8903,0.889,0.8857,0.8839,0.8813,0.878,0.8776,0.8747,0.8734,0.8731,0.8732,0.8726,0.8727,0.8737,0.8716,0.8716,0.8716,0.8716,0,0.9162,0.9145,0.9097,0.9082,0.9062,0.9027,0.9008,0.8983,0.8952,0.8931,0.8901,0.8882,0.8839,0.8814,0.8787,0.8761,0.8753,0.8737,0.873,0.874,0.8742,0.8728,0.8727,0.8716,0.8716,0.8716,0.8716,0,0.9189,0.9156,0.9128,0.9083,0.9071,0.9058,0.9018,0.9002,0.8976,0.895,0.8941,0.8899,0.8868,0.8832,0.8789,0.8771,0.8746,0.8737,0.8759,0.8754,0.8752,0.8753,0.8754,0.8751,0.8734,0.8734,0.8734,0,0.9196,0.9183,0.9136,0.912,0.91,0.9075,0.9055,0.9019,0.9,0.8958,0.8947,0.8913,0.8885,0.8836,0.8801,0.8767,0.8756,0.8758,0.8751,0.876,0.8755,0.8756,0.8753,0.8761,0.8761,0.8761,0.8762,0,0.9213,0.9197,0.917,0.9138,0.9116,0.9088,0.9059,0.9048,0.9005,0.8985,0.8953,0.8931,0.8887,0.8854,0.8815,0.8791,0.8769,0.8764,0.8761,0.8771,0.8784,0.8776,0.8764,0.8765,0.8764,0.8764,0.8764,0.8764,0.9229,0.9215,0.918,0.9151,0.9125,0.9099,0.9081,0.9052,0.9025,0.8987,0.8967,0.8935,0.8898,0.8845,0.8821,0.8795,0.8787,0.8783,0.8782,0.8782,0.8784,0.8788,0.8788,0.8787,0.8787,0.8787,0.8787,0,0.9243,0.9219,0.9192,0.9153,0.913,0.9112,0.9078,0.9059,0.9032,0.9,0.8973,0.8935,0.8902,0.8864,0.8828,0.8814,0.8803,0.8806,0.8806,0.8801,0.8793,0.8799,0.8815,0.8815,0.8815,0.8815,0.8815,0.8815,0.9248,0.9223,0.9202,0.9163,0.9138,0.9107,0.909,0.9064,0.9038,0.8998,0.8971,0.8946,0.8911,0.8872,0.8841,0.883,0.8818,0.8824,0.881,0.8804,0.8801,0.8799,0.8804,0.8822,0.8822,0.8819,0.8819,0.8819]}]]